Showing default

AAC-HSI-SAT3, 58848

Orbit data source: Space-Track

AAC-HSI-SAT3, 58848 is a UK payload satellite in SSO that was launched on Sat, 11 Nov 2023 UTC via an FALCON 9 launch vehicle from the Air Force Western Test Range (AFWTR). Payload-class satellites include a variety of spacecraft equipped with specific instruments for various scientific and technological missions. These include communications satellites like Starlink; space stations such as the ISS; scientific satellites like the Hubble; Earth observation satellites from companies like Planet Labs, Umbra, and HawkEye 360; GPS; miniature CubeSats for education and research; and military/defense satellites.

Loading next visibility...
Identifier
58848, 2023-174DH
Orbit
SSO
Country
Flag of UKUK
Related business
Manufacturer
AAC ClydeSpace
Mission
Operational Commercial Imaging
Bus & Motor
CUBESAT 6U, Unknown motor
Mass
10 kg wet, ~10 kg dry
Launch date (UTC)
2023-11-11 (3 years ago)
Launch vehicle
FALCON 9
Launch site
Air Force Western Test Range (AFWTR)
Object type
Payload
Rocket body
Debris
Shape & HBR
Box + 2 Pan, 1.0 m
Radar Cross Section
0.092 m², Medium (>0.1 m² and < 1m²)

Expand to show TLE details & history
Last TLE update: 8 hours ago

TLE from 8 hours ago
0 AAC-HSI-SAT3
1 58848U 23174DH  26236.92142943  .00002111  00000-0  11295-3 0  9999
2 58848  97.3357 294.0330 0011968 124.0823 236.1547 15.16055424154310
Epoch: 2026-08-24T22:06Z
TLE epoch observation values (Epoch: 2026-08-24T22:06:51.502Z)
Latitude
-0.00012°
Longitude
-10.87777°
Altitude
525.468 km
Speed
7.598 km/s
True Right ascension
19h 36m 07s
True Declination
0° 00' 00"
Sunlit
Object was in full shadow at epoch
Visualization orbit readout
Latitude
Unknown
Longitude
Unknown
Altitude
Unknown
Speed
Unknown
Apparent Right ascension
Unknown
Apparent Declination
Unknown
Sunlit
N/A
Visualization observer readout
Local Sidereal Time
21:11:57
Azimuth
Unknown
Elevation
Unknown
Doppler factor
Unknown
Orbital elements
Apogee altitude
522.994 km
Perigee altitude
506.495 km
Semi-major axis
6,892.881 km
Eccentricity
0.0012
Inclination
97.3357°
RAAN
294.033°
Arg. of periapsis
124.0823°
True anomaly
236.04089°
Mean anomaly
236.1547°
Eccentric anomaly
236.09779°
Mean motion
3.79264 °/min
Orbital period
94.92 mins
BSTAR
0.00011295
Loading maneuver chart data...
Computing Atmospheric mass density...

Documentation

Showing up to 5 results
|